Погода в Ичалкаранжи

Индия     16°41′38″N   74°28′25″E
темп.,
°C
ветер,
м/с
пор.,
м/с
влажн.,
%
обл.,
%
осадки,
мм/ч
давл.,
гПа
погр.,
м
16 апреля, пт
пт1623:30+27зюз46563 0.0 1011326
02:30+25зсз36742 0.0 1010308
05:30+24зсз24771 0.0 1011137
08:30+27зсз22490 0.0 1013495
11:30+33с33215 0.0 10122137
14:30+36ссз23150 0.0 10073597
17:30+36с33150 0.0 10063777
20:30+29з58411 0.0 1010454
17 апреля, сб
сб1723:30+27з46470 0.0 1011247
02:30+25зсз36530 0.0 1009187
05:30+24зсз23500 0.0 101044
08:30+29сз33330 0.0 1013379
11:30+36ссв44160 0.0 10112496
14:30+38св44132 0.0 10083882
17:30+37св44132 0.0 10073936
20:30+30з58371 0.0 1011285
18 апреля, вс
вс1823:30+27з47500 0.0 1012231
02:30+25з36600 0.0 1011167
05:30+24зсз34610 0.0 101179
08:30+30ссз36310 0.0 1013515
11:30+37ссв65133 0.0 10122884
14:30+38ссв44135 0.0 10083847
17:30+38ссз231429 0.0 10073878
20:30+29зюз69485 0.0 1010494
19 апреля, пн
пн1923:30+27з59553 0.0 1011356
02:30+25з36675 0.0 1010269
05:30+23зюз35745 0.0 1011170
08:30+28зсз45462 0.0 1012441
11:30+36сз45182 0.0 10101739
14:30+38зсз22156 0.0 10064113
17:30+34з11102695 0.0 10061274
20:30+28з711444 0.0 1009490
20 апреля, вт
вт2023:30+25з59615 0.0 1010401
02:30+23з59770 0.0 1008308
05:30+22юз01841 0.0 101049
08:30+26зсз45560 0.0 1011482
11:30+34ссз34224 0.0 10101518
14:30+37сз12165 0.0 10063122
17:30+36з962572 0.0 10051953
20:30+28зюз710501 0.0 1009453